Simultaneous Nadir Overpasses (SNOs) Predictions

Prediction of SNOs between METOP-C and LANDSAT-8 Satellite Orbit:

Table of predicted SNOs for the next 14.0 days since TLE Epoch: 8/10/2024
Index Date (METOP-C) Time (METOP-C) Lat,Lon (METOP-C) SZA (METOP-C ) Date (LANDSAT-8) Time (LANDSAT-8) Lat,Lon (LANDSAT-8) SZA (LANDSAT-8 ) Distance(km) Time Diff (sec)
1 08/12/2024 03:41:14 -81.09, -16.02 111.81 08/12/2024 03:42:24 -81.08, -16.19 111.80 2.81 70
2 08/12/2024 04:31:54 81.09, 151.48 68.22 08/12/2024 04:31:50 81.09, 151.58 68.23 1.68 4
3 08/14/2024 23:15:38 -81.08, 50.07 110.98 08/14/2024 23:16:42 -81.08, 50.17 110.94 1.73 64
4 08/15/2024 00:06:16 81.11,-141.67 69.16 08/15/2024 00:06:07 81.11,-141.75 69.14 1.36 9
5 08/17/2024 18:49:59 -81.09, 116.75 110.04 08/17/2024 18:50:57 -81.09, 116.78 110.01 0.72 58
6 08/17/2024 19:40:39 81.09, -75.72 70.00 08/17/2024 19:40:23 81.09, -75.54 70.02 3.17 16
7 08/20/2024 14:24:21 -81.09,-176.72 109.09 08/20/2024 14:25:12 -81.09,-176.72 109.06 0.59 51
8 08/20/2024 15:15:01 81.10, -9.18 70.96 08/20/2024 15:14:38 81.09, -9.07 70.95 1.95 23
9 08/23/2024 09:58:43 -81.09,-110.35 108.13 08/23/2024 09:59:26 -81.09,-110.32 108.11 0.74 43



Historial Predications of SNOs between METOP-C and LANDSAT-8
